TimeMDT,TemperatureF,Dew PointF,Humidity,Sea Level PressureIn,VisibilityMPH,Wind Direction,Wind SpeedMPH,Gust SpeedMPH,PrecipitationIn,Events,Conditions,WindDirDegrees,DateUTC
12:53 AM,54.0,30.9,41,29.98,10.0,NW,5.8,-,N/A,,Mostly Cloudy,320,2012-10-05 06:53:00
1:53 AM,48.2,26.6,43,30.09,10.0,NNW,6.9,-,N/A,,Partly Cloudy,340,2012-10-05 07:53:00
2:53 AM,46.9,27.0,46,30.04,10.0,NNW,5.8,-,N/A,,Partly Cloudy,330,2012-10-05 08:53:00
3:53 AM,48.9,23.0,36,30.04,10.0,NW,6.9,-,N/A,,Clear,320,2012-10-05 09:53:00
4:53 AM,48.0,21.9,36,30.06,10.0,NW,4.6,-,N/A,,Clear,320,2012-10-05 10:53:00
5:53 AM,45.0,24.1,44,30.09,10.0,Calm,Calm,-,N/A,,Clear,0,2012-10-05 11:53:00
6:53 AM,44.1,28.9,55,30.12,10.0,ESE,4.6,-,N/A,,Partly Cloudy,120,2012-10-05 12:53:00
7:53 AM,42.1,28.0,58,30.15,10.0,South,6.9,-,N/A,,Scattered Clouds,180,2012-10-05 13:53:00
8:53 AM,48.0,24.1,39,30.16,10.0,SSE,4.6,-,N/A,,Scattered Clouds,150,2012-10-05 14:53:00
9:53 AM,53.1,21.9,30,30.15,10.0,Calm,Calm,-,N/A,,Scattered Clouds,0,2012-10-05 15:53:00
10:53 AM,57.0,21.9,26,30.16,10.0,WNW,3.5,-,N/A,,Scattered Clouds,290,2012-10-05 16:53:00
11:53 AM,59.0,18.0,20,30.15,10.0,NNW,3.5,-,N/A,,Partly Cloudy,330,2012-10-05 17:53:00
12:53 PM,60.1,23.0,24,30.13,10.0,Variable,5.8,-,N/A,,Partly Cloudy,0,2012-10-05 18:53:00
1:53 PM,63.0,15.1,16,30.12,10.0,North,5.8,-,N/A,,Scattered Clouds,350,2012-10-05 19:53:00
2:53 PM,63.0,18.0,18,30.09,10.0,NNW,9.2,-,N/A,,Scattered Clouds,330,2012-10-05 20:53:00
3:53 PM,63.0,21.0,20,30.08,10.0,Variable,6.9,-,N/A,,Scattered Clouds,0,2012-10-05 21:53:00
4:53 PM,62.1,21.0,21,30.08,10.0,NNW,5.8,-,N/A,,Mostly Cloudy,340,2012-10-05 22:53:00
5:53 PM,62.1,18.0,18,30.08,10.0,NW,6.9,-,N/A,,Mostly Cloudy,320,2012-10-05 23:53:00
6:53 PM,55.9,19.0,24,30.09,10.0,North,6.9,-,N/A,,Mostly Cloudy,360,2012-10-06 00:53:00
7:53 PM,53.1,19.0,26,30.10,10.0,NNE,4.6,-,N/A,,Mostly Cloudy,20,2012-10-06 01:53:00
8:53 PM,52.0,15.1,23,30.08,10.0,ESE,4.6,-,N/A,,Mostly Cloudy,120,2012-10-06 02:53:00
9:53 PM,48.0,24.1,39,30.08,10.0,WSW,4.6,-,N/A,,Mostly Cloudy,250,2012-10-06 03:53:00
10:53 PM,48.9,19.9,32,30.09,10.0,Calm,Calm,-,N/A,,Mostly Cloudy,0,2012-10-06 04:53:00
11:53 PM,48.0,23.0,37,30.08,10.0,Calm,Calm,-,N/A,,Scattered Clouds,0,2012-10-06 05:53:00